Tracking 29892 objects as of 21-Nov-2024
HD Live streaming from Space Station
objects crossing your sky now

JILIN-01 GAOFEN 3B

Track JILIN-01 GAOFEN 3B now!
10-day predictions


NORAD ID: 46454
Int'l Code: 2020-065A
Perigee: 458.6 km
Apogee: 471.4 km
Inclination: 97.3 °
Period: 93.7 minutes
Semi major axis: 6835 km
RCS: Unknown
Launch date: September 15, 2020
Source: People's Republic of China (PRC)
Launch site: Yellow Sea Launch Area, China (YSLA)
Your satellite tracking list
Your tracking list is empty




NASA's NSSDC Master Catalog

Two Line Element Set (TLE):
1 46454U 20065A   24326.13036577  .00030395  00000-0  86498-3 0  9993
2 46454  97.3176   9.0359 0009318  26.1104 334.0608 15.36031960231430
Source of the keplerian elements: AFSPC